This is the latest recevied weather packets stored in our database for station/object WC4PEM-7. If no packets are shown the sender has not sent any weather packets the latest 10 day(s).
| Time | Temp. | Humidity | Pressure | Rain* | Wind** | Luminosity | Snow |
|---|---|---|---|---|---|---|---|
| 1778071408 | 22.78° C | 87% | 1016.6 hPa | 0 mm | - | - | - |
| 1778071108 | 22.78° C | 87% | 1016.6 hPa | 0 mm | - | - | - |
| 1778071024 | 22.78° C | 87% | 1016.6 hPa | 0 mm | - | - | - |
| 1778070808 | 22.78° C | 87% | 1016.6 hPa | 0 mm | - | - | - |
| 1778070508 | 22.22° C | 88% | 1016.6 hPa | 0 mm | - | - | - |
| 1778070255 | 22.22° C | 88% | 1016.6 hPa | 0 mm | - | - | - |
| 1778070208 | 22.22° C | 88% | 1016.6 hPa | 0 mm | - | - | - |
| 1778069908 | 21.67° C | 89% | 1016.6 hPa | 0 mm | - | - | - |
| 1778069679 | 21.67° C | 89% | 1016.5 hPa | 0 mm | - | - | - |
| 1778069608 | 21.67° C | 89% | 1016.5 hPa | 0 mm | - | - | - |
| 1778069308 | 21.67° C | 89% | 1016.5 hPa | 0 mm | - | - | - |
| 1778069008 | 21.11° C | 90% | 1016.4 hPa | 0 mm | - | - | - |
| 1778068831 | 20.56° C | 90% | 1016.2 hPa | 0 mm | - | - | - |
| 1778068755 | 21.11° C | 90% | 1016.5 hPa | 0 mm | - | - | - |
| 1778068709 | 21.11° C | 90% | 1016.5 hPa | 0 mm | - | - | - |
| 1778068468 | 20.56° C | 90% | 1016.4 hPa | 0 mm | - | - | - |
| 1778068408 | 20.56° C | 90% | 1016.4 hPa | 0 mm | - | - | - |
| 1778068108 | 20.56° C | 90% | 1016.2 hPa | 0 mm | - | - | - |
| 1778067841 | 20.56° C | 91% | 1016.4 hPa | 0 mm | - | - | - |
| 1778067808 | 20.56° C | 91% | 1016.4 hPa | 0 mm | - | - | - |
| 1778067508 | 20.56° C | 91% | 1016.3 hPa | 0 mm | - | - | - |
| 1778067208 | 20° C | 91% | 1016.3 hPa | 0 mm | - | - | - |
| 1778066909 | 20° C | 91% | 1016.3 hPa | 0 mm | - | - | - |
| 1778066609 | 20° C | 91% | 1016.2 hPa | 0 mm | - | - | - |
| 1778066309 | 20° C | 91% | 1016.1 hPa | 0 mm | - | - | - |
* Rain latest hour (hover to see other rain measurements)
** Current wind speed in m/s (hover to see current wind gust speed)